Home > Weather > Sacramento > Past weeks

Flag for USA Past Weather in Sacramento, California, USA — Yesterday and Last 2 Weeks

Now
59 °F

Clear.


Feels Like: 58 °F
Forecast: 57 / 87 °F
Wind: 8 mph from South

Location: Sacramento Executive Airport

Current Time: Aug 27, 2016 at 5:03:27 AM

Latest Report: Aug 27, 2016 at 3:53 AM


Visibility: 10 mi

Pressure: 29.91 "Hg

Humidity: 81%

Dew Point: 53 °F

Location of SacramentoLocation

Past Weather in Sacramento — Graph

°F

Sacramento Temperature Yesterday

Maximum temperature yesterday: 82 °F (at 3:53 PM)
Minimum temperature yesterday: 56 °F (at 5:53 AM)
Average temperature yesterday: 66 °F

High & Low Weather Summary for the Past Weeks

 TemperatureHumidityPressure
High100 °F (Aug 14, 3:53 PM)93% (Aug 24, 5:53 AM)30.06 "Hg (Aug 24, 5:53 AM)
Low54 °F (Aug 24, 5:53 AM)8% (Aug 13, 5:53 PM)29.72 "Hg (Aug 17, 6:53 PM)
Average72 °F55%29.86 "Hg
* Reported Aug 12 3:53 AM — Aug 27 3:53 AM, Sacramento, Weather by CustomWeather, © 2016

Note: Actual official high and low records may vary slightly from our data, if they occured in-between our weather recording intervals... More about our weather records

Advertising

Sacramento Weather History for the Previous 24 Hours

Scroll right to see more
 ConditionsComfort  
Time TempWeatherWind HumidityBarometerVisibility
3:53 AM
Sat, Aug 27
59 °FClear.8 mph81%29.91 "Hg10 mi
2:53 AM59 °FClear.8 mph81%29.91 "Hg10 mi
1:53 AM59 °FClear.9 mph81%29.90 "Hg10 mi
12:53 AM60 °FClear.8 mph78%29.90 "Hg10 mi
11:53 PM
Fri, Aug 26
61 °FClear.13 mph78%29.90 "Hg10 mi
10:53 PM61 °FClear.13 mph78%29.89 "Hg10 mi
9:53 PM62 °FClear.9 mph78%29.89 "Hg10 mi
8:53 PM64 °FClear.8 mph73%29.87 "Hg10 mi
7:53 PM68 °FSunny.7 mph63%29.85 "Hg10 mi
6:53 PM73 °FSunny.13 mph55%29.84 "Hg10 mi
5:53 PM77 °FSunny.13 mph48%29.85 "Hg10 mi
4:53 PM81 °FSunny.13 mph39%29.85 "Hg10 mi
3:53 PM82 °FSunny.14 mph37%29.86 "Hg10 mi
2:53 PM81 °FSunny.10 mph39%29.87 "Hg10 mi
1:53 PM79 °FSunny.13 mph41%29.88 "Hg10 mi
12:53 PM77 °FSunny.9 mph47%29.89 "Hg10 mi
11:53 AM74 °FSunny.9 mph50%29.90 "Hg10 mi
10:53 AM71 °FSunny.9 mph57%29.90 "Hg10 mi
9:53 AM66 °FSunny.8 mph68%29.90 "Hg10 mi
8:53 AM61 °FSunny.7 mph81%29.89 "Hg10 mi
7:53 AM57 °FSunny.3 mph87%29.88 "Hg10 mi
6:53 AM56 °FClear.5 mph90%29.86 "Hg10 mi
5:53 AM56 °FClear.6 mph90%29.85 "Hg10 mi
Weather by CustomWeather, © 2016

See weather overviewHow to use our weather pages